STARLINK-5692, 55483

Orbit data source: Space-Track

STARLINK-5692, 55483 is a payload satellite owned by SpaceX/Seattle (US) in LEO that was launched on Thu, 02 Feb 2023 UTC via an FALCON 9 launch vehicle from the Air Force Eastern Test Range (AFETR). Payload-class satellites include a variety of spacecraft equipped with specific instruments for various scientific and technological missions. These include communications satellites like Starlink; space stations such as the ISS; scientific satellites like the Hubble; Earth observation satellites from companies like Planet Labs, Umbra, and HawkEye 360; GPS; miniature CubeSats for education and research; and military/defense satellites.

Loading next visibility...
Identifier
55483, 2023-015AL
Orbit
LEO
Last TLE update
16 hours ago
Origin
Manufacturer
SpaceX/Seattle
Mission
Operational Commercial Communications
Bus & Motor
STARLINK, Unknown motor
Mass
305 kg wet, ~290 kg dry
Launch date (UTC)
2023-02-02 (2 years ago)
Launch vehicle
FALCON 9
Launch site
Air Force Eastern Test Range (AFETR)
Object type
Payload
Rocket body
Debris
Shape & HBR
Box + 1 Pan, 8.86 m
Radar Cross Section
13.562 m², Large (>1 m²)

Expand to show TLE details & history

TLE from 16 hours ago
0 STARLINK-5692
1 55483U 23015AL  25181.73854910  .00000378  00000-0  43071-4 0  9997
2 55483  43.0066 268.0467 0002397 300.1341  59.9264 15.02530450132705
Epoch: 2025-06-30T17:43Z
TLE epoch observation values (Epoch: 2025-06-30T17:43:30.642Z)
Latitude
0.00001°
Longitude
83.125°
Altitude
558.042 km
Speed
7.585 km/s
True Right ascension
17h 52m 11s
True Declination
0° 00' 00"
Sunlit
Object was in full shadow at epoch
Visualization orbit readout
Latitude
-27.95495°
Longitude
45.09255°
Altitude
564.721 km
Speed
7.58 km/s
Apparent Right ascension
12h 40m 51s
Apparent Declination
-43° 43' 14"
Sunlit
Object is in full shadow
Visualization observer readout
Local Sidereal Time
21:07:36
Azimuth
246.414° WSW
Elevation
-50.774°
Doppler factor
1
Orbital elements
Apogee altitude
562.683 km
Perigee altitude
559.356 km
Semi-major axis
6,939.156 km
Eccentricity
0.00024
Inclination
43.0066°
RAAN
268.0467°
Arg. of periapsis
300.1341°
True anomaly
Unknown
Mean anomaly
59.9264°
Eccentric anomaly
Unknown
Mean motion
3.75477 °/min
Orbital period
95.88 mins
BSTAR
0.000043071
Loading maneuver chart data...
Loading SW <> Apogee altitude chart data...
Loading historical data...
Loading historical data...
Loading historical data...
Loading historical data...
Loading historical data...
Loading historical data...
Loading historical data...

STARLINK-5692 Visibility forecast

Observer location: undefined°, undefined°

Span
Click to sort rows by Start time (UTC) header in descending order
Start Az.
Max El. time (UTC)
Max El. Az.
Max El.
End time (UTC)
End Az.
7 mins2025-07-01 09:55:18.769Z244.264° WSW2025-07-01 09:58:18.769Z215.663° SW43.313°2025-07-01 10:02:18.769Z73.394° E
6 mins2025-07-01 11:37:18.769Z287.522° WNW2025-07-01 11:39:18.769Z342.918° N39.363°2025-07-01 11:43:18.769Z74.921° E
7 mins2025-07-01 13:17:18.769Z290.143° WNW2025-07-01 13:20:18.769Z350.006° N44.007°2025-07-01 13:24:18.769Z101.161° ESE
6 mins2025-07-01 14:58:18.769Z267.808° W2025-07-01 15:01:18.769Z200.117° SSW28.851°2025-07-01 15:04:18.769Z149.319° SSE
5 mins2025-07-02 08:13:18.769Z189.697° SSW2025-07-02 08:15:18.769Z145.941° SSE25.517°2025-07-02 08:18:18.769Z91.47° ESE
|